Weather History for EHDL - April, 2013

Change the Weather History Date:

Tuesday, April 23, 2013

  Actual Average Record
Temperature  
Mean Temperature 50 °F -  
Max Temperature 59 °F 61 °F 80 °F (2011)
Min Temperature 41 °F 46 °F 32 °F (2015)
Degree Days  
Heating Degree Days 14    
Moisture  
Dew Point 45 °F    
Average Humidity 81    
Maximum Humidity 100    
Minimum Humidity 59    
Precipitation  
Precipitation 0.00 in - - ()
Sea Level Pressure  
Sea Level Pressure 30.08 in    
Wind  
Wind Speed 10 mph ()    
Max Wind Speed 15 mph    
Max Gust Speed -    
Visibility 5.3 miles    
Events Rain    
Averages and records for this station are not official NWS values.
T = Trace of Precipitation, MM = Missing Value Source: Averaged Metar Reports

Daily Weather History Graph

Daily Weather History Graph

Search for Another Location

Airport or City:

Trip Planner

Search our weather history database for the weather conditions in past years. The results will help you decide how hot, cold, wet, or windy it might be!

Date:

Astronomy

Apr. 23, 2013 Rise Set
Actual Time 6:22 AM CEST 8:48 PM CEST
Civil Twilight 5:45 AM CEST 9:25 PM CEST
Nautical Twilight 4:58 AM CEST 10:13 PM CEST
Astronomical Twilight 4:02 AM CEST 11:09 PM CEST
Moon 6:10 PM CEST (4/23) 5:00 AM CEST (4/23)
Length of Visible Light 15h 40m
Length of Day
14h 25m
Waxing Gibbous, 92% of the Moon is Illuminated
Apr 23
Waxing Gibbous
Apr 25
Full
May 2
Last Quarter
May 10
New
May 18
First Quarter

Hourly Weather History & Observations

Time (CEST) Temp. Dew Point Humidity Pressure Visibility Wind Dir Wind Speed Gust Speed Precip Events Conditions
12:25 AM 50.0 °F 42.8 °F 76% 30.01 in 6.2 mi SW 8.1 mph - N/A   Overcast
12:55 AM 50.0 °F 42.8 °F 76% 30.01 in 6.2 mi SW 9.2 mph - N/A   Overcast
1:25 AM 50.0 °F 39.2 °F 66% 30.01 in 6.2 mi SW 13.8 mph - N/A   Overcast
1:55 AM 50.0 °F 39.2 °F 66% 29.98 in 6.2 mi SW 12.7 mph - N/A   Overcast
2:25 AM 50.0 °F 39.2 °F 66% 29.98 in 6.2 mi SW 12.7 mph - N/A   Mostly Cloudy
2:55 AM 50.0 °F 39.2 °F 66% 29.98 in 6.2 mi SW 12.7 mph - N/A   Overcast
3:25 AM 50.0 °F 39.2 °F 66% 29.98 in 6.2 mi SW 11.5 mph - N/A   Overcast
3:55 AM 50.0 °F 39.2 °F 66% 29.98 in 6.2 mi SW 11.5 mph - N/A   Overcast
4:25 AM 50.0 °F 41.0 °F 71% 29.98 in 6.2 mi SW 13.8 mph - N/A   Overcast
4:55 AM 50.0 °F 41.0 °F 71% 29.98 in 6.2 mi SW 12.7 mph - N/A   Overcast
5:25 AM 50.0 °F 42.8 °F 76% 29.98 in 6.2 mi SW 15.0 mph - N/A   Overcast
5:55 AM 50.0 °F 42.8 °F 76% 29.98 in 6.2 mi SW 12.7 mph - N/A   Overcast
6:25 AM 50.0 °F 42.8 °F 76% 29.98 in 6.2 mi SW 11.5 mph - N/A   Overcast
6:55 AM 50.0 °F 44.6 °F 82% 30.01 in 6.2 mi WSW 13.8 mph - N/A   Overcast
7:25 AM 48.2 °F 44.6 °F 87% 30.01 in 3.7 mi SW 12.7 mph - N/A   Overcast
7:55 AM 48.2 °F 46.4 °F 93% 30.01 in 3.1 mi SW 10.4 mph - N/A   Overcast
8:25 AM 48.2 °F 46.4 °F 93% 30.04 in 1.7 mi SW 11.5 mph - N/A   Drizzle
8:55 AM 48.2 °F 48.2 °F 100% 30.04 in 1.4 mi SW 11.5 mph - N/A   Drizzle
9:25 AM 48.2 °F 48.2 °F 100% 30.04 in 1.2 mi SW 11.5 mph - N/A Rain Drizzle
9:55 AM 48.2 °F 48.2 °F 100% 30.06 in 1.2 mi SW 11.5 mph - N/A   Drizzle
10:25 AM 50.0 °F 48.2 °F 94% 30.06 in 1.4 mi SW 12.7 mph - N/A   Overcast
10:55 AM 50.0 °F 50.0 °F 100% 30.06 in 1.5 mi SW 11.5 mph - N/A   Overcast
11:25 AM 50.0 °F 48.2 °F 94% 30.06 in 1.4 mi SW 12.7 mph - N/A   Drizzle
11:55 AM 50.0 °F 50.0 °F 100% 30.09 in - SW 13.8 mph - N/A   Mostly Cloudy
12:25 PM 51.8 °F 50.0 °F 94% 30.09 in 5.0 mi WSW 12.7 mph - N/A   Mostly Cloudy
12:55 PM 51.8 °F 50.0 °F 94% 30.09 in 6.2 mi WSW 12.7 mph - N/A   Mostly Cloudy
1:03 PM 51.8 °F 50.0 °F 94% 30.09 in 6.2 mi WSW 12.7 mph - N/A   Mostly Cloudy
1:25 PM 51.8 °F 50.0 °F 94% 30.09 in 6.2 mi WSW 11.5 mph - N/A   Overcast
1:55 PM 51.8 °F 50.0 °F 94% 30.12 in 6.2 mi WSW 11.5 mph - N/A   Overcast
2:25 PM 53.6 °F 50.0 °F 88% 30.12 in 5.6 mi WSW 10.4 mph - N/A   Overcast
2:55 PM 53.6 °F 50.0 °F 88% 30.15 in 6.2 mi West 10.4 mph - N/A   Mostly Cloudy
3:25 PM 55.4 °F 50.0 °F 82% 30.12 in 6.2 mi WSW 9.2 mph - N/A   Mostly Cloudy
3:55 PM 55.4 °F 50.0 °F 82% 30.12 in 6.2 mi WSW 11.5 mph - N/A   Overcast
4:25 PM 57.2 °F 48.2 °F 72% 30.12 in 6.2 mi WSW 12.7 mph - N/A   Overcast
4:55 PM 57.2 °F 48.2 °F 72% 30.12 in 6.2 mi WSW 10.4 mph - N/A   Mostly Cloudy
5:25 PM 59.0 °F 48.2 °F 67% 30.15 in 6.2 mi WSW 12.7 mph - N/A   Mostly Cloudy
5:55 PM 59.0 °F 48.2 °F 67% 30.15 in 6.2 mi WSW 9.2 mph - N/A   Scattered Clouds
6:25 PM 57.2 °F 46.4 °F 67% 30.15 in 6.2 mi West 12.7 mph - N/A   Scattered Clouds
6:55 PM 57.2 °F 42.8 °F 59% 30.15 in 6.2 mi West 10.4 mph - N/A   Mostly Cloudy
7:25 PM 57.2 °F 44.6 °F 63% 30.15 in 6.2 mi West 8.1 mph - N/A   Mostly Cloudy
7:55 PM 55.4 °F 44.6 °F 67% 30.18 in 6.2 mi WNW 5.8 mph - N/A   Partly Cloudy
8:25 PM 53.6 °F 44.6 °F 72% 30.18 in 6.2 mi NW 4.6 mph - N/A   Partly Cloudy
8:55 PM 53.6 °F 44.6 °F 72% 30.18 in 6.2 mi NW 2.3 mph - N/A   Mostly Cloudy
9:25 PM 48.2 °F 42.8 °F 82% 30.21 in 6.2 mi WNW 1.2 mph - N/A   Mostly Cloudy
9:55 PM 44.6 °F 41.0 °F 87% 30.21 in 6.2 mi ESE 1.2 mph - N/A   Partly Cloudy
10:25 PM 44.6 °F 42.8 °F 93% 30.21 in 6.2 mi SSE 1.2 mph - N/A   Partly Cloudy
10:55 PM 42.8 °F 41.0 °F 93% 30.21 in 6.2 mi East 1.2 mph - N/A   Mostly Cloudy
11:25 PM 42.8 °F 41.0 °F 93% 30.24 in 6.2 mi ESE 1.2 mph - N/A   Mostly Cloudy
11:55 PM 41.0 °F 39.2 °F 93% 30.24 in 6.2 mi ESE 1.2 mph - N/A   Mostly Cloudy